Terug naar catalogus

STARLINK-35718

ActiefCommunicatieVLEO
NORAD 66894·PAYLOAD·🇺🇸 United States

Gelanceerd Dec 4, 2025 vanaf Vandenberg Space Force Base

Loading…

Volgende Passages (komende 24 uur)

TLE

VersSource: CelesTrak SupGP

Epoch: Sep 15, 2026, 02:36 UTC

1 66894C 25283S   26258.10881944 -.00050503  00000+0 -14921-2 0  2582
2 66894  53.1582 222.8093 0001651  90.0109  15.5206 15.34416055    11

Volg STARLINK-35718 in realtime met AllMySat

Download on the App Store